TimePST,TemperatureF,Dew PointF,Humidity,Sea Level PressureIn,VisibilityMPH,Wind Direction,Wind SpeedMPH,Gust SpeedMPH,PrecipitationIn,Events,Conditions,WindDirDegrees,DateUTC
12:25 AM,28.4,24.8,86,30.14,2.0,SSW,5.8,-,0.00,Snow,Light Snow,210,2012-11-13 08:25:00
12:53 AM,28.0,24.1,85,30.24,1.8,SSW,8.1,-,0.00,Snow,Light Snow,210,2012-11-13 08:53:00
1:06 AM,28.4,24.8,86,30.14,1.8,SW,4.6,-,0.00,Snow,Light Snow,220,2012-11-13 09:06:00
1:53 AM,28.0,25.0,88,30.26,2.5,Variable,4.6,-,0.00,Snow,Light Snow,0,2012-11-13 09:53:00
2:15 AM,28.4,24.8,86,30.16,1.5,Variable,3.5,-,0.00,Snow,Light Snow,0,2012-11-13 10:15:00
2:29 AM,28.4,24.8,86,30.15,0.8,South,4.6,-,0.00,,Overcast,190,2012-11-13 10:29:00
2:53 AM,28.0,24.1,85,30.26,0.5,South,5.8,-,0.00,Fog-Snow,Light Snow,190,2012-11-13 10:53:00
3:24 AM,28.4,24.8,86,30.15,1.0,Variable,4.6,-,0.00,,Mist,0,2012-11-13 11:24:00
3:38 AM,28.4,24.8,86,30.15,0.5,Variable,5.8,-,0.00,Fog-Snow,Light Snow,0,2012-11-13 11:38:00
3:53 AM,28.0,25.0,88,30.26,0.8,SSW,6.9,-,0.00,Snow,Light Snow,210,2012-11-13 11:53:00
4:05 AM,28.4,24.8,86,30.15,1.8,SSW,8.1,-,0.00,Snow,Light Snow,210,2012-11-13 12:05:00
4:12 AM,28.4,24.8,86,30.15,2.0,SSW,5.8,-,0.00,Snow,Light Snow,210,2012-11-13 12:12:00
4:31 AM,28.4,24.8,86,30.15,1.2,South,4.6,-,0.00,Snow,Light Snow,190,2012-11-13 12:31:00
4:49 AM,28.4,24.8,86,30.15,1.8,Variable,5.8,-,0.00,Snow,Light Snow,0,2012-11-13 12:49:00
4:53 AM,28.0,25.0,88,30.26,1.2,South,4.6,-,0.00,Snow,Light Snow,180,2012-11-13 12:53:00
5:02 AM,28.4,24.8,86,30.15,0.5,Variable,4.6,-,0.00,Fog-Snow,Light Snow,0,2012-11-13 13:02:00
5:26 AM,28.4,24.8,86,30.15,1.5,SSW,4.6,-,0.00,Snow,Light Snow,210,2012-11-13 13:26:00
5:34 AM,28.4,24.8,86,30.14,1.0,SSW,5.8,-,0.00,,Overcast,210,2012-11-13 13:34:00
5:53 AM,28.0,25.0,88,30.25,0.8,SW,8.1,-,0.00,Snow,Light Snow,230,2012-11-13 13:53:00
6:41 AM,28.4,24.8,86,30.15,0.2,Variable,6.9,-,0.00,Fog,Light Freezing Fog,0,2012-11-13 14:41:00
6:48 AM,28.4,24.8,86,30.15,0.8,SSW,5.8,-,0.00,Snow,Light Snow,200,2012-11-13 14:48:00
6:53 AM,28.0,25.0,88,30.25,0.8,SSW,6.9,-,0.00,Snow,Light Snow,210,2012-11-13 14:53:00
7:00 AM,28.4,24.8,86,30.15,0.8,SW,6.9,-,0.00,Snow,Light Snow,230,2012-11-13 15:00:00
7:41 AM,28.4,24.8,86,30.16,1.0,Variable,3.5,-,0.00,Snow,Light Snow,0,2012-11-13 15:41:00
7:47 AM,28.4,26.6,93,30.15,2.0,SSW,3.5,-,0.00,Snow,Light Snow,210,2012-11-13 15:47:00
7:51 AM,28.4,26.6,93,30.15,3.0,SSW,3.5,-,0.00,,Overcast,210,2012-11-13 15:51:00
7:53 AM,28.9,25.0,85,30.26,1.2,South,4.6,-,0.00,,Overcast,190,2012-11-13 15:53:00
7:59 AM,28.4,24.8,86,30.16,0.2,South,4.6,-,0.00,Fog-Snow,Light Snow,190,2012-11-13 15:59:00
8:44 AM,28.4,24.8,86,30.16,0.2,Variable,4.6,-,0.00,Fog-Snow,Light Snow,0,2012-11-13 16:44:00
8:53 AM,28.9,25.0,85,30.26,0.2,Variable,3.5,-,0.00,Fog-Snow,Light Snow,0,2012-11-13 16:53:00
9:43 AM,30.2,26.6,86,30.16,0.5,Variable,4.6,-,0.00,Fog-Snow,Light Snow,0,2012-11-13 17:43:00
9:48 AM,30.2,26.6,86,30.16,0.2,SSW,3.5,-,0.00,Fog-Snow,Light Snow,210,2012-11-13 17:48:00
9:53 AM,30.0,26.1,85,30.25,0.5,Variable,5.8,-,0.00,Fog-Snow,Light Snow,0,2012-11-13 17:53:00
10:01 AM,30.2,26.6,86,30.16,0.5,Variable,5.8,-,0.00,Snow,Snow,0,2012-11-13 18:01:00
10:11 AM,30.2,26.6,86,30.16,0.5,Variable,3.5,-,0.00,Fog,Light Freezing Fog,0,2012-11-13 18:11:00
10:30 AM,30.2,26.6,86,30.15,0.2,Variable,4.6,-,0.00,Fog-Snow,Light Snow,0,2012-11-13 18:30:00
10:53 AM,30.0,26.1,85,30.24,0.2,Variable,4.6,-,0.00,Fog-Snow,Light Snow,0,2012-11-13 18:53:00
11:53 AM,30.9,27.0,85,30.07,0.2,Variable,3.5,-,0.01,Fog-Snow,Light Snow,0,2012-11-13 19:53:00
12:53 PM,30.9,27.0,85,30.06,0.2,Variable,4.6,-,0.04,Fog-Snow,Light Snow,0,2012-11-13 20:53:00
1:53 PM,30.9,27.0,85,30.05,0.5,Variable,3.5,-,0.04,Fog-Snow,Light Snow,0,2012-11-13 21:53:00
2:53 PM,30.0,27.0,88,30.19,1.0,Variable,6.9,-,0.01,Snow,Light Snow,0,2012-11-13 22:53:00
3:08 PM,30.2,26.6,86,30.10,0.8,SW,5.8,-,0.00,Snow,Light Snow,230,2012-11-13 23:08:00
3:53 PM,30.0,27.0,88,30.19,0.8,SW,5.8,-,0.00,Snow,Light Snow,220,2012-11-13 23:53:00
4:01 PM,30.2,26.6,86,30.10,1.5,WSW,4.6,-,0.00,Snow,Light Snow,240,2012-11-14 00:01:00
4:16 PM,30.2,26.6,86,30.10,3.0,WSW,4.6,-,0.00,Snow,Light Snow,240,2012-11-14 00:16:00
4:28 PM,30.2,26.6,86,30.11,1.5,Variable,3.5,-,0.00,Snow,Light Snow,0,2012-11-14 00:28:00
4:31 PM,30.2,26.6,86,30.10,0.8,SW,5.8,-,0.00,Snow,Light Snow,230,2012-11-14 00:31:00
4:41 PM,30.2,26.6,86,30.10,0.2,WSW,4.6,-,0.00,Fog,Light Freezing Fog,240,2012-11-14 00:41:00
4:50 PM,30.2,26.6,86,30.10,0.5,Variable,3.5,-,0.00,Fog-Snow,Light Snow,0,2012-11-14 00:50:00
4:53 PM,30.0,27.0,88,30.19,0.5,Variable,6.9,-,0.00,Fog-Snow,Light Snow,0,2012-11-14 00:53:00
5:17 PM,30.2,26.6,86,30.10,1.5,SW,6.9,-,0.00,,Overcast,230,2012-11-14 01:17:00
5:32 PM,30.2,26.6,86,30.10,0.8,Variable,5.8,-,0.00,,Mist,0,2012-11-14 01:32:00
5:53 PM,30.0,27.0,88,30.19,0.5,Variable,5.8,-,0.00,Fog,Light Freezing Fog,0,2012-11-14 01:53:00
6:02 PM,30.2,26.6,86,30.10,1.5,Variable,5.8,-,N/A,,Overcast,0,2012-11-14 02:02:00
6:05 PM,30.2,26.6,86,30.10,3.0,SW,8.1,-,N/A,,Overcast,220,2012-11-14 02:05:00
6:53 PM,30.0,27.0,88,30.19,10.0,Calm,Calm,-,N/A,,Overcast,0,2012-11-14 02:53:00
7:10 PM,30.2,26.6,86,30.10,9.0,Variable,3.5,-,N/A,,Overcast,0,2012-11-14 03:10:00
7:32 PM,30.2,26.6,86,30.10,1.2,Variable,3.5,-,N/A,,Overcast,0,2012-11-14 03:32:00
7:39 PM,30.2,26.6,86,30.09,0.5,SSW,3.5,-,N/A,Fog,Light Freezing Fog,210,2012-11-14 03:39:00
7:49 PM,30.2,26.6,86,30.10,1.8,Variable,3.5,-,N/A,,Overcast,0,2012-11-14 03:49:00
7:53 PM,30.0,27.0,88,30.04,9.0,WSW,3.5,-,N/A,,Overcast,240,2012-11-14 03:53:00
8:15 PM,30.2,26.6,86,30.09,7.0,Calm,Calm,-,N/A,,Overcast,0,2012-11-14 04:15:00
8:43 PM,30.2,26.6,86,30.09,2.5,Variable,4.6,-,N/A,,Overcast,0,2012-11-14 04:43:00
8:51 PM,30.2,26.6,86,30.09,10.0,SW,3.5,-,N/A,,Overcast,220,2012-11-14 04:51:00
8:53 PM,30.0,27.0,88,30.03,10.0,SW,4.6,-,N/A,,Overcast,230,2012-11-14 04:53:00
9:20 PM,30.2,26.6,86,30.08,1.2,South,4.6,-,N/A,,Overcast,180,2012-11-14 05:20:00
9:28 PM,30.2,26.6,86,30.08,0.5,South,3.5,-,N/A,Fog,Light Freezing Fog,190,2012-11-14 05:28:00
9:33 PM,30.2,26.6,86,30.08,1.0,SSW,4.6,-,N/A,,Overcast,200,2012-11-14 05:33:00
9:40 PM,30.2,26.6,86,30.08,1.5,South,3.5,-,N/A,,Overcast,190,2012-11-14 05:40:00
9:42 PM,30.2,26.6,86,30.08,1.2,South,4.6,-,N/A,,Overcast,190,2012-11-14 05:42:00
9:51 PM,30.2,26.6,86,30.08,0.8,SSW,3.5,-,N/A,,Overcast,200,2012-11-14 05:51:00
9:53 PM,30.0,27.0,88,30.02,0.8,SSW,3.5,-,N/A,,Overcast,200,2012-11-14 05:53:00
10:06 PM,30.2,26.6,86,30.08,1.0,South,4.6,-,N/A,,Overcast,190,2012-11-14 06:06:00
10:14 PM,30.2,26.6,86,30.08,0.8,SSW,5.8,-,N/A,,Overcast,200,2012-11-14 06:14:00
10:26 PM,30.2,26.6,86,30.08,1.5,Variable,5.8,-,N/A,,Overcast,0,2012-11-14 06:26:00
10:29 PM,30.2,26.6,86,30.08,3.0,SSW,4.6,-,N/A,,Overcast,200,2012-11-14 06:29:00
10:48 PM,30.2,26.6,86,30.07,2.0,SSW,5.8,-,N/A,,Overcast,200,2012-11-14 06:48:00
10:53 PM,30.0,27.0,88,30.01,3.0,SSW,4.6,-,N/A,,Overcast,200,2012-11-14 06:53:00
11:23 PM,30.2,26.6,86,30.07,2.5,SSW,5.8,-,N/A,,Overcast,200,2012-11-14 07:23:00
11:35 PM,30.2,26.6,86,30.07,2.0,SSW,5.8,-,0.00,Snow,Light Snow,200,2012-11-14 07:35:00
11:47 PM,30.2,26.6,86,30.07,1.8,SSW,4.6,-,0.00,Snow,Light Snow,200,2012-11-14 07:47:00
11:51 PM,30.2,26.6,86,30.07,2.0,SSW,5.8,-,0.00,Snow,Light Snow,210,2012-11-14 07:51:00
11:53 PM,30.0,27.0,88,30.01,3.0,Variable,6.9,-,0.00,Snow,Light Snow,0,2012-11-14 07:53:00